JST756 YMHB-YBBN

Flight info

Callsign JST756
Flight time 2h 25m
Altitude 37000
Route TASUM H111 LT W218 VIMAP Y327 MAKRL/N0442F360 J163 CB/N0444F380 W137 AVBEG W184 MUDGI/N0443F370 H66 LAGOB H252 BN
Aircraft A320/M-SDE3FGHIRWY/LB1

Departure

Time 2026-04-23 19:59
Airport Hobart International Airport (YMHB)

Arrival

Time 2026-04-23 22:24
Airport Brisbane International Airport (YBBN)
Time Latitude Longitude Altitude Speed Heading
2026-04-23 19:36 -42.83749 147.50688 20 ft 0 kts 172°
2026-04-23 19:51 -42.83742 147.50680 21 ft 4 kts 246°
2026-04-23 19:51 -42.83736 147.50711 20 ft 4 kts 234°
2026-04-23 19:52 -42.83721 147.50742 23 ft 4 kts 235°
2026-04-23 19:52 -42.83717 147.50748 22 ft 0 kts 235°
2026-04-23 19:53 -42.83718 147.50747 24 ft 2 kts 231°
2026-04-23 19:53 -42.83739 147.50744 21 ft 4 kts 162°
2026-04-23 19:54 -42.83770 147.50789 21 ft 9 kts 128°
2026-04-23 19:54 -42.83822 147.50855 22 ft 13 kts 141°
2026-04-23 19:54 -42.83901 147.50956 21 ft 18 kts 134°
2026-04-23 19:54 -42.83931 147.51105 23 ft 18 kts 56°
2026-04-23 19:55 -42.83837 147.51229 22 ft 20 kts 43°
2026-04-23 19:55 -42.83779 147.51394 19 ft 22 kts 115°
2026-04-23 19:55 -42.83890 147.51560 16 ft 25 kts 137°
2026-04-23 19:55 -42.84020 147.51728 16 ft 27 kts 136°
2026-04-23 19:56 -42.84150 147.51902 20 ft 26 kts 135°
2026-04-23 19:56 -42.84283 147.52082 21 ft 27 kts 134°
2026-04-23 19:56 -42.84408 147.52252 19 ft 18 kts 134°
2026-04-23 19:56 -42.84490 147.52312 18 ft 13 kts 165°
2026-04-23 19:57 -42.84557 147.52363 17 ft 12 kts 135°
2026-04-23 19:57 -42.84555 147.52426 15 ft 9 kts 21°
2026-04-23 19:57 -42.84507 147.52386 17 ft 8 kts 309°
2026-04-23 19:57 -42.84466 147.52329 18 ft 9 kts 315°
2026-04-23 19:58 -42.84375 147.52206 20 ft 33 kts 315°
2026-04-23 19:58 -42.84120 147.51860 21 ft 81 kts 315°
2026-04-23 19:58 -42.83572 147.51118 22 ft 137 kts 315°
2026-04-23 19:58 -42.82818 147.50088 275 ft 157 kts 315°
2026-04-23 19:59 -42.82044 147.49052 910 ft 156 kts 315°
2026-04-23 19:59 -42.81273 147.48007 1431 ft 156 kts 316°
2026-04-23 19:59 -42.80496 147.46951 1894 ft 163 kts 316°
2026-04-23 19:59 -42.79636 147.45787 2148 ft 186 kts 316°
2026-04-23 20:00 -42.78666 147.44461 2395 ft 210 kts 316°
2026-04-23 20:00 -42.77575 147.42964 2749 ft 235 kts 316°
2026-04-23 20:00 -42.76377 147.41317 3299 ft 251 kts 315°
2026-04-23 20:00 -42.75142 147.39621 4235 ft 252 kts 315°
2026-04-23 20:01 -42.73914 147.37935 5254 ft 249 kts 315°
2026-04-23 20:01 -42.72695 147.36264 6233 ft 248 kts 313°
2026-04-23 20:01 -42.71479 147.34601 7173 ft 249 kts 313°
2026-04-23 20:01 -42.70247 147.32921 7994 ft 254 kts 315°
2026-04-23 20:02 -42.68730 147.31628 8717 ft 265 kts 339°
2026-04-23 20:02 -42.66860 147.31407 9427 ft 280 kts
2026-04-23 20:02 -42.64922 147.31861 10199 ft 285 kts
2026-04-23 20:02 -42.62937 147.32355 10642 ft 299 kts
2026-04-23 20:03 -42.60819 147.32884 10906 ft 321 kts
2026-04-23 20:03 -42.58548 147.33447 11176 ft 339 kts
2026-04-23 20:03 -42.56200 147.34031 11750 ft 346 kts
2026-04-23 20:03 -42.53817 147.34622 12381 ft 351 kts
2026-04-23 20:04 -42.51400 147.35216 13006 ft 356 kts
2026-04-23 20:04 -42.48951 147.35816 13648 ft 360 kts
2026-04-23 20:04 -42.46469 147.36426 14270 ft 365 kts
2026-04-23 20:04 -42.43960 147.37040 14847 ft 368 kts
2026-04-23 20:05 -42.41426 147.37659 15398 ft 372 kts
2026-04-23 20:05 -42.38866 147.38283 15953 ft 376 kts
2026-04-23 20:05 -42.36277 147.38911 16498 ft 380 kts
2026-04-23 20:05 -42.33656 147.39482 17041 ft 383 kts
2026-04-23 20:06 -42.30995 147.39509 17582 ft 384 kts 352°
2026-04-23 20:06 -42.28347 147.38951 18144 ft 387 kts 347°
2026-04-23 20:06 -42.25690 147.38298 18703 ft 391 kts 347°
2026-04-23 20:06 -42.22995 147.37648 19176 ft 396 kts 348°
2026-04-23 20:07 -42.20269 147.37001 19694 ft 399 kts 347°
2026-04-23 20:07 -42.17515 147.36349 20232 ft 403 kts 348°
2026-04-23 20:07 -42.14747 147.35687 20767 ft 406 kts 347°
2026-04-23 20:07 -42.11953 147.35013 21294 ft 409 kts 347°
2026-04-23 20:08 -42.09135 147.34331 21805 ft 413 kts 347°
2026-04-23 20:08 -42.06299 147.33646 22296 ft 416 kts 348°
2026-04-23 20:08 -42.03436 147.32960 22769 ft 419 kts 348°
2026-04-23 20:08 -42.00551 147.32273 23212 ft 423 kts 348°
2026-04-23 20:09 -41.97642 147.31584 23676 ft 426 kts 348°
2026-04-23 20:09 -41.94713 147.30890 24124 ft 429 kts 348°
2026-04-23 20:09 -41.91802 147.30198 24489 ft 432 kts 348°
2026-04-23 20:09 -41.88829 147.29484 24858 ft 435 kts 348°
2026-04-23 20:10 -41.86815 147.28999 25102 ft 437 kts 348°
2026-04-23 20:10 -41.82833 147.28040 25562 ft 441 kts 348°
2026-04-23 20:10 -41.79805 147.27314 25909 ft 444 kts 348°
2026-04-23 20:10 -41.76754 147.26591 26249 ft 447 kts 348°
2026-04-23 20:11 -41.73686 147.25871 26592 ft 449 kts 348°
2026-04-23 20:11 -41.70595 147.25149 26904 ft 452 kts 348°
2026-04-23 20:11 -41.67484 147.24420 27224 ft 455 kts 348°
2026-04-23 20:11 -41.64351 147.23682 27551 ft 458 kts 348°
2026-04-23 20:12 -41.61206 147.22937 27875 ft 461 kts 348°
2026-04-23 20:12 -41.58037 147.22186 28209 ft 464 kts 348°
2026-04-23 20:12 -41.54845 147.21481 28530 ft 467 kts 352°
2026-04-23 20:12 -41.51585 147.21257 28841 ft 471 kts 358°
2026-04-23 20:13 -41.48296 147.21208 29165 ft 474 kts 358°
2026-04-23 20:13 -41.44992 147.21159 29480 ft 476 kts 358°
2026-04-23 20:13 -41.41668 147.21103 29805 ft 478 kts 358°
2026-04-23 20:13 -41.38341 147.21047 30259 ft 478 kts 358°
2026-04-23 20:14 -41.35021 147.20992 30681 ft 477 kts 358°
2026-04-23 20:14 -41.31698 147.20936 31052 ft 477 kts 358°
2026-04-23 20:14 -41.28382 147.20881 31429 ft 477 kts 358°
2026-04-23 20:14 -41.25108 147.20826 31804 ft 477 kts 358°
2026-04-23 20:15 -41.21793 147.20773 32181 ft 476 kts 358°
2026-04-23 20:15 -41.18480 147.20721 32582 ft 476 kts 358°
2026-04-23 20:15 -41.15171 147.20667 32965 ft 475 kts 358°
2026-04-23 20:15 -41.11863 147.20614 33342 ft 475 kts 358°
2026-04-23 20:16 -41.08555 147.20558 33727 ft 475 kts 358°
2026-04-23 20:16 -41.05251 147.20500 34114 ft 475 kts 358°
2026-04-23 20:16 -41.01942 147.20439 34492 ft 475 kts 358°
2026-04-23 20:16 -40.98646 147.20380 34829 ft 474 kts 358°
2026-04-23 20:17 -40.95345 147.20325 35131 ft 474 kts 358°
2026-04-23 20:17 -40.92049 147.20273 35440 ft 474 kts 358°
2026-04-23 20:17 -40.88756 147.20219 35735 ft 474 kts 358°
2026-04-23 20:17 -40.85462 147.20164 36019 ft 473 kts 357°
2026-04-23 20:18 -40.82165 147.20110 36267 ft 474 kts 358°
2026-04-23 20:18 -40.78869 147.20058 36543 ft 474 kts 357°
2026-04-23 20:18 -40.75572 147.20007 36803 ft 474 kts 357°
2026-04-23 20:18 -40.72269 147.19956 37057 ft 474 kts 357°
2026-04-23 20:19 -40.68968 147.19994 37296 ft 475 kts
2026-04-23 20:19 -40.65687 147.20579 37429 ft 478 kts 12°
2026-04-23 20:19 -40.62478 147.21811 37455 ft 483 kts 21°
2026-04-23 20:20 -40.56299 147.25418 37447 ft 488 kts 24°
2026-04-23 20:20 -40.50096 147.29048 37444 ft 488 kts 24°
2026-04-23 20:21 -40.43878 147.32659 37436 ft 488 kts 24°
2026-04-23 20:21 -40.37660 147.36270 37449 ft 489 kts 24°
2026-04-23 20:22 -40.31473 147.39861 37457 ft 489 kts 24°
2026-04-23 20:22 -40.25250 147.43480 37462 ft 489 kts 24°
2026-04-23 20:23 -40.19029 147.47093 37470 ft 489 kts 24°
2026-04-23 20:23 -40.12799 147.50700 37463 ft 489 kts 24°
2026-04-23 20:24 -40.07625 147.53679 37459 ft 489 kts 24°
2026-04-23 20:24 -40.01396 147.57261 37468 ft 489 kts 24°
2026-04-23 20:25 -39.95156 147.60843 37474 ft 489 kts 24°
2026-04-23 20:25 -39.88929 147.64416 37474 ft 489 kts 24°
2026-04-23 20:26 -39.82692 147.67994 37487 ft 489 kts 24°
2026-04-23 20:26 -39.76465 147.71553 37470 ft 489 kts 24°
2026-04-23 20:27 -39.70239 147.75094 37469 ft 489 kts 24°
2026-04-23 20:27 -39.64009 147.78629 37465 ft 489 kts 24°
2026-04-23 20:28 -39.57782 147.82179 37474 ft 489 kts 25°
2026-04-23 20:28 -39.51552 147.85720 37470 ft 489 kts 24°
2026-04-23 20:29 -39.45323 147.89247 37465 ft 489 kts 24°
2026-04-23 20:29 -39.39085 147.92757 37474 ft 489 kts 25°
2026-04-23 20:30 -39.32850 147.96275 37478 ft 489 kts 25°
2026-04-23 20:30 -39.23501 148.01519 37475 ft 488 kts 25°
2026-04-23 20:31 -39.17319 148.04985 37471 ft 488 kts 25°
2026-04-23 20:31 -39.11097 148.08481 37471 ft 487 kts 25°
2026-04-23 20:32 -39.04880 148.11963 37474 ft 487 kts 25°
2026-04-23 20:32 -38.98659 148.15425 37466 ft 487 kts 25°
2026-04-23 20:33 -38.92441 148.18880 37473 ft 487 kts 25°
2026-04-23 20:33 -38.86218 148.22325 37475 ft 486 kts 25°
2026-04-23 20:34 -38.80010 148.25770 37472 ft 486 kts 25°
2026-04-23 20:34 -38.73810 148.29209 37472 ft 486 kts 25°
2026-04-23 20:35 -38.67603 148.32638 37470 ft 485 kts 25°
2026-04-23 20:35 -38.61397 148.36060 37470 ft 485 kts 25°
2026-04-23 20:36 -38.55199 148.39472 37470 ft 485 kts 25°
2026-04-23 20:36 -38.48916 148.42601 37470 ft 486 kts 15°
2026-04-23 20:37 -38.42291 148.44335 37463 ft 486 kts 11°
2026-04-23 20:37 -38.35647 148.45985 37464 ft 486 kts 11°
2026-04-23 20:38 -38.29008 148.47628 37462 ft 486 kts 11°
2026-04-23 20:38 -38.22364 148.49272 37475 ft 486 kts 11°
2026-04-23 20:39 -38.15731 148.50925 37473 ft 485 kts 11°
2026-04-23 20:39 -38.09145 148.52561 37472 ft 485 kts 11°
2026-04-23 20:40 -38.02522 148.54208 37469 ft 485 kts 11°
2026-04-23 20:40 -37.95902 148.55841 37467 ft 484 kts 11°
2026-04-23 20:41 -37.89285 148.57470 37463 ft 484 kts 11°
2026-04-23 20:41 -37.82663 148.59097 37464 ft 484 kts 11°
2026-04-23 20:42 -37.76041 148.60730 37464 ft 484 kts 11°
2026-04-23 20:42 -37.69427 148.62348 37464 ft 484 kts 11°
2026-04-23 20:43 -37.62816 148.63960 37466 ft 484 kts 11°
2026-04-23 20:43 -37.56203 148.65570 37465 ft 484 kts 11°
2026-04-23 20:44 -37.49602 148.67181 37468 ft 483 kts 11°
2026-04-23 20:44 -37.42994 148.68804 37467 ft 483 kts 11°
2026-04-23 20:45 -37.36395 148.70405 37465 ft 483 kts 11°
2026-04-23 20:45 -37.29789 148.71998 37461 ft 483 kts 11°
2026-04-23 20:46 -37.23193 148.73598 37462 ft 483 kts 11°
2026-04-23 20:46 -37.16639 148.75180 37473 ft 483 kts 11°
2026-04-23 20:47 -37.10049 148.76771 37484 ft 482 kts 11°
2026-04-23 20:47 -37.03473 148.78355 37486 ft 481 kts 11°
2026-04-23 20:48 -36.96900 148.79934 37483 ft 480 kts 11°
2026-04-23 20:48 -36.90338 148.81504 37484 ft 480 kts 11°
2026-04-23 20:49 -36.83776 148.83082 37484 ft 480 kts 11°
2026-04-23 20:49 -36.77216 148.84651 37489 ft 480 kts 11°
2026-04-23 20:50 -36.70663 148.86214 37489 ft 479 kts 11°
2026-04-23 20:50 -36.64112 148.87773 37488 ft 479 kts 11°
2026-04-23 20:51 -36.57570 148.89329 37487 ft 478 kts 11°
2026-04-23 20:51 -36.51033 148.90881 37480 ft 478 kts 11°
2026-04-23 20:52 -36.44533 148.92420 37484 ft 477 kts 11°
2026-04-23 20:52 -36.38005 148.93963 37485 ft 477 kts 11°
2026-04-23 20:53 -36.31477 148.95503 37481 ft 477 kts 11°
2026-04-23 20:53 -36.24945 148.97045 37480 ft 477 kts 11°
2026-04-23 20:54 -36.18414 148.98584 37480 ft 477 kts 11°
2026-04-23 20:54 -36.11884 149.00112 37480 ft 477 kts 11°
2026-04-23 20:55 -36.05359 149.01647 37481 ft 477 kts 11°
2026-04-23 20:55 -35.98884 149.03162 37479 ft 477 kts 11°
2026-04-23 20:56 -35.92366 149.04685 37498 ft 476 kts 11°
2026-04-23 20:56 -35.85864 149.06200 37490 ft 475 kts 11°
2026-04-23 20:57 -35.79377 149.07714 37482 ft 474 kts 11°
2026-04-23 20:57 -35.72891 149.09226 37478 ft 474 kts 11°
2026-04-23 20:58 -35.66407 149.10730 37474 ft 474 kts 11°
2026-04-23 20:58 -35.59932 149.12225 37481 ft 473 kts 11°
2026-04-23 20:59 -35.53450 149.13724 37489 ft 473 kts 11°
2026-04-23 20:59 -35.46978 149.15223 37498 ft 473 kts 11°
2026-04-23 21:00 -35.40505 149.16722 37506 ft 473 kts 11°
2026-04-23 21:00 -35.34076 149.18202 37505 ft 473 kts 11°
2026-04-23 21:01 -35.27505 149.18822 37506 ft 471 kts 354°
2026-04-23 21:01 -35.21173 149.17188 37503 ft 468 kts 342°
2026-04-23 21:02 -35.14882 149.15022 37468 ft 469 kts 343°
2026-04-23 21:02 -35.08592 149.12903 37468 ft 469 kts 343°
2026-04-23 21:03 -35.02291 149.10787 37466 ft 469 kts 343°
2026-04-23 21:03 -34.96000 149.08664 37466 ft 469 kts 343°
2026-04-23 21:04 -34.89740 149.06547 37461 ft 469 kts 343°
2026-04-23 21:04 -34.83351 149.04989 37463 ft 470 kts 356°
2026-04-23 21:05 -34.76852 149.05707 37460 ft 470 kts 12°
2026-04-23 21:05 -34.70444 149.07323 37454 ft 470 kts 12°
2026-04-23 21:06 -34.64030 149.08916 37449 ft 471 kts 11°
2026-04-23 21:06 -34.57612 149.10498 37451 ft 471 kts 12°
2026-04-23 21:07 -34.51196 149.12089 37450 ft 471 kts 12°
2026-04-23 21:07 -34.44780 149.13686 37445 ft 471 kts 12°
2026-04-23 21:08 -34.39445 149.15004 37448 ft 471 kts 11°
2026-04-23 21:08 -34.33029 149.16580 37446 ft 470 kts 11°
2026-04-23 21:09 -34.26610 149.18161 37443 ft 470 kts 12°
2026-04-23 21:09 -34.20198 149.19747 37438 ft 470 kts 12°
2026-04-23 21:10 -34.13782 149.21327 37437 ft 470 kts 11°
2026-04-23 21:10 -34.07367 149.22900 37437 ft 470 kts 11°
2026-04-23 21:11 -34.00945 149.24477 37433 ft 470 kts 11°
2026-04-23 21:11 -33.94576 149.26021 37410 ft 469 kts 11°
2026-04-23 21:12 -33.88194 149.27585 37402 ft 468 kts 11°
2026-04-23 21:12 -33.81808 149.29151 37401 ft 469 kts 11°
2026-04-23 21:13 -33.75413 149.30716 37407 ft 469 kts 11°
2026-04-23 21:13 -33.69013 149.32276 37414 ft 469 kts 11°
2026-04-23 21:14 -33.62612 149.33823 37417 ft 469 kts 11°
2026-04-23 21:14 -33.56209 149.35374 37422 ft 469 kts 11°
2026-04-23 21:15 -33.49806 149.36922 37419 ft 469 kts 11°
2026-04-23 21:15 -33.43394 149.38470 37419 ft 469 kts 11°
2026-04-23 21:16 -33.38534 149.39645 37420 ft 469 kts 11°
2026-04-23 21:16 -33.32136 149.41201 37417 ft 469 kts 11°
2026-04-23 21:17 -33.25738 149.42743 37417 ft 469 kts 11°
2026-04-23 21:17 -33.19343 149.44283 37412 ft 469 kts 11°
2026-04-23 21:18 -33.12945 149.45825 37416 ft 469 kts 11°
2026-04-23 21:18 -33.06593 149.47340 37411 ft 468 kts 11°
2026-04-23 21:19 -33.00203 149.48863 37411 ft 468 kts 11°
2026-04-23 21:19 -32.93814 149.50403 37403 ft 468 kts 11°
2026-04-23 21:20 -32.87423 149.51922 37405 ft 468 kts 11°
2026-04-23 21:20 -32.81077 149.53421 37400 ft 468 kts 11°
2026-04-23 21:21 -32.74691 149.54939 37396 ft 468 kts 11°
2026-04-23 21:21 -32.68302 149.56462 37397 ft 468 kts 11°
2026-04-23 21:22 -32.61918 149.57987 37395 ft 468 kts 11°
2026-04-23 21:22 -32.55743 149.60186 37402 ft 467 kts 26°
2026-04-23 21:23 -32.50268 149.64290 37391 ft 466 kts 36°
2026-04-23 21:23 -32.44979 149.68746 37387 ft 467 kts 36°
2026-04-23 21:24 -32.39681 149.73196 37385 ft 467 kts 36°
2026-04-23 21:24 -32.34418 149.77616 37378 ft 467 kts 36°
2026-04-23 21:25 -32.29112 149.82065 37382 ft 468 kts 36°
2026-04-23 21:25 -32.23804 149.86519 37386 ft 468 kts 36°
2026-04-23 21:26 -32.18487 149.90960 37396 ft 468 kts 36°
2026-04-23 21:26 -32.13202 149.95363 37397 ft 468 kts 36°
2026-04-23 21:27 -32.07877 149.99797 37397 ft 468 kts 36°
2026-04-23 21:27 -32.02555 150.04230 37396 ft 468 kts 36°
2026-04-23 21:28 -31.97231 150.08663 37393 ft 468 kts 36°
2026-04-23 21:28 -31.91903 150.13082 37383 ft 469 kts 36°
2026-04-23 21:29 -31.86602 150.17462 37391 ft 469 kts 36°
2026-04-23 21:29 -31.81265 150.21882 37388 ft 469 kts 36°
2026-04-23 21:30 -31.75931 150.26299 37375 ft 469 kts 36°
2026-04-23 21:30 -31.70590 150.30710 37373 ft 469 kts 36°
2026-04-23 21:31 -31.65280 150.35083 37375 ft 469 kts 36°
2026-04-23 21:31 -31.59933 150.39483 37368 ft 470 kts 36°
2026-04-23 21:32 -31.54584 150.43880 37359 ft 469 kts 35°
2026-04-23 21:32 -31.49234 150.48273 37362 ft 470 kts 35°
2026-04-23 21:33 -31.43914 150.52624 37355 ft 470 kts 35°
2026-04-23 21:33 -31.38555 150.57008 37351 ft 470 kts 35°
2026-04-23 21:34 -31.33199 150.61385 37348 ft 470 kts 35°
2026-04-23 21:34 -31.27837 150.65760 37349 ft 470 kts 35°
2026-04-23 21:35 -31.22512 150.70105 37356 ft 470 kts 35°
2026-04-23 21:35 -31.17960 150.73811 37363 ft 470 kts 35°
2026-04-23 21:36 -31.09844 150.80400 37371 ft 470 kts 34°
2026-04-23 21:37 -31.04664 150.85047 37369 ft 470 kts 42°
2026-04-23 21:37 -30.99834 150.90105 37366 ft 470 kts 42°
2026-04-23 21:38 -30.94953 150.95182 37317 ft 470 kts 42°
2026-04-23 21:38 -30.90069 151.00260 37318 ft 471 kts 42°
2026-04-23 21:39 -30.85179 151.05333 37327 ft 471 kts 41°
2026-04-23 21:39 -30.80316 151.10358 37329 ft 471 kts 41°
2026-04-23 21:40 -30.75416 151.15421 37320 ft 471 kts 41°
2026-04-23 21:40 -30.70516 151.20486 37322 ft 471 kts 41°
2026-04-23 21:41 -30.65618 151.25553 37330 ft 472 kts 41°
2026-04-23 21:41 -30.60746 151.30581 37330 ft 472 kts 41°
2026-04-23 21:42 -30.55829 151.35630 37329 ft 472 kts 41°
2026-04-23 21:42 -30.50908 151.40677 37329 ft 472 kts 41°
2026-04-23 21:43 -30.45992 151.45735 37335 ft 473 kts 41°
2026-04-23 21:43 -30.41101 151.50756 37331 ft 473 kts 41°
2026-04-23 21:44 -30.36172 151.55802 37320 ft 473 kts 40°
2026-04-23 21:44 -30.31238 151.60838 37336 ft 473 kts 40°
2026-04-23 21:45 -30.26301 151.65872 37345 ft 473 kts 40°
2026-04-23 21:45 -30.21399 151.70869 37348 ft 473 kts 40°
2026-04-23 21:46 -30.16459 151.75907 37341 ft 473 kts 40°
2026-04-23 21:46 -30.11515 151.80933 37338 ft 473 kts 40°
2026-04-23 21:47 -30.06566 151.85947 37338 ft 473 kts 40°
2026-04-23 21:47 -30.01645 151.90926 37329 ft 473 kts 40°
2026-04-23 21:48 -29.96695 151.95939 37323 ft 474 kts 40°
2026-04-23 21:48 -29.91738 152.00955 37321 ft 474 kts 40°
2026-04-23 21:49 -29.86774 152.05962 37317 ft 474 kts 40°
2026-04-23 21:49 -29.81845 152.10927 37320 ft 474 kts 40°
2026-04-23 21:50 -29.76878 152.15939 37322 ft 474 kts 40°
2026-04-23 21:50 -29.71916 152.20935 37308 ft 474 kts 40°
2026-04-23 21:51 -29.66942 152.25923 37316 ft 474 kts 40°
2026-04-23 21:51 -29.62000 152.30866 37313 ft 474 kts 40°
2026-04-23 21:52 -29.57030 152.35847 37314 ft 474 kts 40°
2026-04-23 21:52 -29.52056 152.40820 37299 ft 474 kts 39°
2026-04-23 21:53 -29.47085 152.45773 37312 ft 474 kts 39°
2026-04-23 21:53 -29.42143 152.50696 37314 ft 474 kts 39°
2026-04-23 21:54 -29.37170 152.55657 37310 ft 474 kts 39°
2026-04-23 21:54 -29.32193 152.60613 37297 ft 474 kts 39°
2026-04-23 21:55 -29.27207 152.65561 37297 ft 474 kts 39°
2026-04-23 21:55 -29.22218 152.70496 37302 ft 474 kts 39°
2026-04-23 21:56 -29.17264 152.75400 37299 ft 474 kts 39°
2026-04-23 21:56 -29.12278 152.80344 37286 ft 474 kts 39°
2026-04-23 21:57 -29.07290 152.85273 37293 ft 474 kts 38°
2026-04-23 21:57 -29.02288 152.90195 37292 ft 475 kts 38°
2026-04-23 21:58 -28.97318 152.95090 37298 ft 475 kts 38°
2026-04-23 21:58 -28.92316 153.00004 37295 ft 475 kts 38°
2026-04-23 21:58 -28.89743 153.02365 36868 ft 475 kts 32°
2026-04-23 21:59 -28.86890 153.04290 35990 ft 476 kts 22°
2026-04-23 21:59 -28.83823 153.05659 35258 ft 473 kts 14°
2026-04-23 21:59 -28.80642 153.06548 34462 ft 474 kts
2026-04-23 22:00 -28.74169 153.08199 32611 ft 478 kts 10°
2026-04-23 22:00 -28.70968 153.09036 31830 ft 478 kts 10°
2026-04-23 22:00 -28.67755 153.09882 31353 ft 471 kts 10°
2026-04-23 22:00 -28.64577 153.10717 30775 ft 467 kts 10°
2026-04-23 22:01 -28.61426 153.11537 30184 ft 463 kts 10°
2026-04-23 22:01 -28.58297 153.12342 29587 ft 458 kts 10°
2026-04-23 22:01 -28.55209 153.13134 29044 ft 453 kts 10°
2026-04-23 22:01 -28.52148 153.13918 28478 ft 448 kts 10°
2026-04-23 22:02 -28.49157 153.14683 27941 ft 444 kts 10°
2026-04-23 22:02 -28.46158 153.15451 27389 ft 441 kts 11°
2026-04-23 22:02 -28.43179 153.16217 26852 ft 437 kts 11°
2026-04-23 22:02 -28.40224 153.16977 26321 ft 434 kts 11°
2026-04-23 22:03 -28.37287 153.17731 25791 ft 432 kts 11°
2026-04-23 22:03 -28.34363 153.18480 25283 ft 430 kts 12°
2026-04-23 22:03 -28.31449 153.19227 24785 ft 429 kts 12°
2026-04-23 22:03 -28.28541 153.19972 24286 ft 428 kts 12°
2026-04-23 22:04 -28.25642 153.20713 23803 ft 426 kts 12°
2026-04-23 22:04 -28.22794 153.21440 23289 ft 423 kts 12°
2026-04-23 22:04 -28.19930 153.22170 22818 ft 420 kts 12°
2026-04-23 22:04 -28.17071 153.22803 22343 ft 418 kts
2026-04-23 22:05 -28.14212 153.23326 21872 ft 415 kts
2026-04-23 22:05 -28.11365 153.23784 21395 ft 412 kts
2026-04-23 22:05 -28.08531 153.24220 20915 ft 410 kts
2026-04-23 22:05 -28.05713 153.24662 20416 ft 408 kts
2026-04-23 22:06 -28.02912 153.25118 19908 ft 406 kts
2026-04-23 22:06 -28.00118 153.25591 19393 ft 405 kts 11°
2026-04-23 22:06 -27.97373 153.26065 18874 ft 403 kts 11°
2026-04-23 22:06 -27.94610 153.26548 18308 ft 401 kts 11°
2026-04-23 22:07 -27.91861 153.27030 17765 ft 398 kts 11°
2026-04-23 22:07 -27.89132 153.27508 17237 ft 395 kts 11°
2026-04-23 22:07 -27.86432 153.27979 16704 ft 391 kts 11°
2026-04-23 22:07 -27.83756 153.28441 16181 ft 387 kts 11°
2026-04-23 22:08 -27.81104 153.28896 15659 ft 384 kts 11°
2026-04-23 22:08 -27.78514 153.29342 15151 ft 380 kts 12°
2026-04-23 22:08 -27.75912 153.29791 14635 ft 377 kts 11°
2026-04-23 22:08 -27.73330 153.30235 14119 ft 374 kts 12°
2026-04-23 22:09 -27.70768 153.30677 13566 ft 370 kts 12°
2026-04-23 22:09 -27.68237 153.31112 13059 ft 366 kts 12°
2026-04-23 22:09 -27.65736 153.31541 12555 ft 362 kts 11°
2026-04-23 22:09 -27.63240 153.31864 12071 ft 360 kts
2026-04-23 22:10 -27.60803 153.31978 11766 ft 352 kts
2026-04-23 22:10 -27.58376 153.32094 11432 ft 347 kts
2026-04-23 22:10 -27.55974 153.32210 11095 ft 344 kts
2026-04-23 22:10 -27.53584 153.32326 10760 ft 342 kts
2026-04-23 22:11 -27.52206 153.32394 10621 ft 336 kts
2026-04-23 22:11 -27.49909 153.32507 10512 ft 325 kts
2026-04-23 22:11 -27.47685 153.32612 10365 ft 315 kts
2026-04-23 22:11 -27.45530 153.32714 9901 ft 306 kts
2026-04-23 22:12 -27.43448 153.32814 9729 ft 304 kts
2026-04-23 22:12 -27.41339 153.32917 9511 ft 303 kts
2026-04-23 22:12 -27.39231 153.33018 9300 ft 302 kts
2026-04-23 22:12 -27.37131 153.33123 9064 ft 301 kts
2026-04-23 22:13 -27.35090 153.33559 8836 ft 297 kts 20°
2026-04-23 22:13 -27.33196 153.34452 8521 ft 294 kts 28°
2026-04-23 22:13 -27.31340 153.35413 8227 ft 293 kts 28°
2026-04-23 22:13 -27.29490 153.36367 7935 ft 292 kts 28°
2026-04-23 22:14 -27.27650 153.37312 7632 ft 290 kts 28°
2026-04-23 22:14 -27.25839 153.38239 7348 ft 290 kts 27°
2026-04-23 22:14 -27.24004 153.39176 7052 ft 289 kts 28°
2026-04-23 22:14 -27.22148 153.40036 6758 ft 290 kts 18°
2026-04-23 22:15 -27.20134 153.40280 6454 ft 293 kts 357°
2026-04-23 22:15 -27.18155 153.39765 6132 ft 294 kts 336°
2026-04-23 22:15 -27.16429 153.38563 5814 ft 292 kts 317°
2026-04-23 22:15 -27.15074 153.36892 5494 ft 288 kts 301°
2026-04-23 22:16 -27.14195 153.34920 5456 ft 277 kts 284°
2026-04-23 22:16 -27.13807 153.32914 5403 ft 259 kts 270°
2026-04-23 22:16 -27.13841 153.30960 5301 ft 243 kts 256°
2026-04-23 22:16 -27.14234 153.29171 5144 ft 230 kts 243°
2026-04-23 22:17 -27.14920 153.27599 4940 ft 220 kts 231°
2026-04-23 22:17 -27.15840 153.26272 4701 ft 212 kts 220°
2026-04-23 22:17 -27.16938 153.25220 4450 ft 205 kts 209°
2026-04-23 22:17 -27.18161 153.24442 4189 ft 200 kts 202°
2026-04-23 22:18 -27.19395 153.23740 3930 ft 197 kts 202°
2026-04-23 22:18 -27.20592 153.23057 3675 ft 192 kts 202°
2026-04-23 22:18 -27.21747 153.22398 3432 ft 182 kts 201°
2026-04-23 22:18 -27.22838 153.21776 3225 ft 169 kts 201°
2026-04-23 22:19 -27.23850 153.21198 2988 ft 158 kts 201°
2026-04-23 22:19 -27.24803 153.20655 2766 ft 148 kts 200°
2026-04-23 22:19 -27.25691 153.20149 2573 ft 139 kts 200°
2026-04-23 22:19 -27.26537 153.19667 2403 ft 134 kts 200°
2026-04-23 22:20 -27.27360 153.19199 2224 ft 133 kts 200°
2026-04-23 22:20 -27.28181 153.18732 2058 ft 131 kts 200°
2026-04-23 22:20 -27.28991 153.18270 1877 ft 133 kts 200°
2026-04-23 22:20 -27.29809 153.17804 1711 ft 130 kts 202°
2026-04-23 22:21 -27.30619 153.17342 1531 ft 133 kts 201°
2026-04-23 22:21 -27.31435 153.16876 1357 ft 132 kts 201°
2026-04-23 22:21 -27.32245 153.16414 1181 ft 131 kts 201°
2026-04-23 22:21 -27.33063 153.15947 1016 ft 131 kts 201°
2026-04-23 22:22 -27.33882 153.15481 812 ft 131 kts 194°
2026-04-23 22:22 -27.34705 153.15010 624 ft 137 kts 196°
2026-04-23 22:22 -27.35558 153.14516 473 ft 143 kts 197°
2026-04-23 22:22 -27.36438 153.14002 300 ft 140 kts 194°
2026-04-23 22:23 -27.37330 153.13494 115 ft 144 kts 189°
2026-04-23 22:23 -27.38205 153.13018 27 ft 125 kts 202°
2026-04-23 22:23 -27.38833 153.12667 22 ft 76 kts 208°
2026-04-23 22:23 -27.39188 153.12463 20 ft 51 kts 208°
2026-04-23 22:24 -27.39511 153.12268 22 ft 41 kts 208°
2026-04-23 22:24 -27.39576 153.12122 21 ft 18 kts 275°
2026-04-23 22:24 -27.39516 153.11980 23 ft 24 kts 296°
2026-04-23 22:24 -27.39401 153.11974 22 ft 18 kts 21°
2026-04-23 22:25 -27.39269 153.12038 22 ft 23 kts 24°
2026-04-23 22:25 -27.39133 153.12106 21 ft 23 kts 25°
2026-04-23 22:25 -27.38985 153.12198 21 ft 27 kts 28°
2026-04-23 22:25 -27.38867 153.12163 23 ft 14 kts 314°
2026-04-23 22:26 -27.38781 153.12080 21 ft 14 kts 334°
2026-04-23 22:26 -27.38684 153.12097 22 ft 14 kts 18°
2026-04-23 22:26 -27.38618 153.12080 23 ft 7 kts 310°
2026-04-23 22:26 -27.38613 153.12073 22 ft 0 kts 308°